Radiation Dose at Monitoring Post of Fukushima Daini Nuclear Power Station
Date,Time,MP-1(microSv/h),MP-2(microSv/h),MP-3(microSv/h),MP-4(microSv/h),MP-5(microSv/h),MP-6(microSv/h),MP-7(microSv/h),Wind Direction,Wind Velocity(m/s),Rain
2018/05/16,00:00,0.311,0.196,0.320,0.305,0.300,0.159,0.096,south-southwest,3.5,No
2018/05/16,00:10,0.311,0.194,0.318,0.304,0.299,0.159,0.097,south-southwest,4.7,No
2018/05/16,00:20,0.310,0.195,0.318,0.307,0.300,0.158,0.097,south-southwest,5.1,No
2018/05/16,00:30,0.311,0.195,0.317,0.304,0.297,0.159,0.098,south-southwest,5.0,No
2018/05/16,00:40,0.310,0.194,0.317,0.306,0.301,0.159,0.097,south-southwest,4.3,No
2018/05/16,00:50,0.310,0.195,0.319,0.305,0.298,0.160,0.096,south-southwest,4.3,No
2018/05/16,01:00,0.311,0.195,0.317,0.304,0.300,0.157,0.097,south-southwest,3.5,No
2018/05/16,01:10,0.311,0.195,0.319,0.305,0.299,0.159,0.096,south-southwest,3.6,No
2018/05/16,01:20,0.310,0.195,0.318,0.304,0.301,0.159,0.097,south-southwest,3.1,No
2018/05/16,01:30,0.311,0.195,0.320,0.304,0.299,0.158,0.096,south-southwest,3.3,No
2018/05/16,01:40,0.311,0.195,0.317,0.305,0.299,0.158,0.097,southwest,2.1,No
2018/05/16,01:50,0.311,0.195,0.318,0.305,0.298,0.159,0.096,southwest,4.3,No
2018/05/16,02:00,0.310,0.195,0.317,0.303,0.299,0.159,0.097,southwest,3.5,No
2018/05/16,02:10,0.311,0.194,0.319,0.305,0.301,0.158,0.097,southwest,3.8,No
2018/05/16,02:20,0.309,0.195,0.318,0.303,0.298,0.159,0.097,southwest,3.5,No
2018/05/16,02:30,0.311,0.194,0.319,0.307,0.301,0.159,0.097,southwest,4.1,No
2018/05/16,02:40,0.310,0.196,0.318,0.305,0.299,0.160,0.098,southwest,4.5,No
2018/05/16,02:50,0.311,0.195,0.318,0.307,0.302,0.160,0.098,south-southwest,3.8,No
2018/05/16,03:00,0.310,0.196,0.316,0.304,0.299,0.159,0.097,southwest,5.2,No
2018/05/16,03:10,0.313,0.196,0.320,0.306,0.300,0.159,0.096,southwest,4.1,No
2018/05/16,03:20,0.311,0.197,0.317,0.304,0.301,0.159,0.098,southwest,3.4,No
2018/05/16,03:30,0.313,0.195,0.321,0.306,0.301,0.159,0.098,south-southwest,2.5,No
2018/05/16,03:40,0.311,0.195,0.318,0.305,0.301,0.160,0.098,south-southwest,4.0,No
2018/05/16,03:50,0.310,0.196,0.321,0.306,0.299,0.160,0.098,south-southwest,4.2,No
2018/05/16,04:00,0.313,0.196,0.318,0.305,0.300,0.160,0.098,southwest,4.0,No
2018/05/16,04:10,0.313,0.196,0.321,0.307,0.299,0.160,0.097,southwest,4.1,No
2018/05/16,04:20,0.312,0.196,0.318,0.304,0.301,0.159,0.098,southwest,2.9,No
2018/05/16,04:30,0.312,0.197,0.320,0.306,0.299,0.160,0.098,west-southwest,1.3,No
2018/05/16,04:40,0.313,0.196,0.317,0.304,0.302,0.160,0.097,west,1.0,No
2018/05/16,04:50,0.313,0.196,0.319,0.305,0.299,0.160,0.098,west-southwest,1.2,No
2018/05/16,05:00,0.312,0.195,0.318,0.304,0.301,0.158,0.097,west-southwest,1.4,No
2018/05/16,05:10,0.312,0.196,0.320,0.306,0.299,0.160,0.099,south,2.8,No
2018/05/16,05:20,0.311,0.196,0.318,0.305,0.302,0.160,0.098,south-southwest,4.4,No
2018/05/16,05:30,0.312,0.196,0.318,0.304,0.300,0.159,0.098,south-southwest,4.0,No
2018/05/16,05:40,0.312,0.196,0.318,0.305,0.300,0.159,0.098,south-southwest,5.8,No
2018/05/16,05:50,0.312,0.196,0.320,0.305,0.300,0.159,0.098,south-southwest,5.1,No
2018/05/16,06:00,0.311,0.196,0.318,0.305,0.300,0.160,0.097,southwest,5.1,No
2018/05/16,06:10,0.312,0.195,0.318,0.306,0.300,0.159,0.098,southwest,5.9,No
2018/05/16,06:20,0.312,0.195,0.319,0.305,0.298,0.159,0.098,southwest,5.5,No
2018/05/16,06:30,0.310,0.197,0.319,0.306,0.301,0.159,0.097,southwest,3.5,No
2018/05/16,06:40,0.311,0.196,0.317,0.304,0.299,0.160,0.097,southwest,1.9,No
2018/05/16,06:50,0.312,0.196,0.321,0.305,0.301,0.159,0.097,southwest,4.2,No
2018/05/16,07:00,0.310,0.196,0.318,0.305,0.302,0.160,0.098,south-southwest,3.8,No
2018/05/16,07:10,0.313,0.195,0.318,0.303,0.298,0.159,0.097,southwest,2.8,No
2018/05/16,07:20,0.312,0.196,0.320,0.305,0.300,0.160,0.097,southwest,2.3,No
2018/05/16,07:30,0.311,0.197,0.317,0.308,0.301,0.160,0.098,west-southwest,1.6,No
2018/05/16,07:40,0.312,0.197,0.315,0.304,0.298,0.159,0.098,north-northeast,1.0,No
2018/05/16,07:50,0.311,0.196,0.317,0.301,0.298,0.160,0.097,east-northeast,1.4,No
2018/05/16,08:00,0.309,0.195,0.320,0.301,0.301,0.161,0.097,southeast,0.8,No
2018/05/16,08:10,0.311,0.195,0.319,0.304,0.300,0.160,0.096,south,1.8,No
2018/05/16,08:20,0.312,0.194,0.317,0.309,0.298,0.158,0.099,south,2.4,No
2018/05/16,08:30,0.311,0.194,0.317,0.306,0.297,0.159,0.098,south-southwest,3.1,No
2018/05/16,08:40,0.309,0.194,0.321,0.304,0.297,0.160,0.097,south-southwest,2.6,No
2018/05/16,08:50,0.307,0.195,0.319,0.305,0.297,0.159,0.097,south-southwest,3.2,No
2018/05/16,09:00,0.309,0.195,0.317,0.302,0.297,0.159,0.097,south-southwest,1.0,No
2018/05/16,09:10,0.308,0.195,0.316,0.304,0.296,0.158,0.097,south,2.7,No
2018/05/16,09:20,0.307,0.194,0.321,0.304,0.299,0.158,0.097,south,3.0,No
2018/05/16,09:30,0.313,0.194,0.320,0.303,0.299,0.159,0.096,south,3.0,No
2018/05/16,09:40,0.315,0.193,0.317,0.302,0.298,0.159,0.096,south,2.6,No
2018/05/16,09:50,0.311,0.193,0.316,0.305,0.301,0.159,0.096,south-southeast,1.4,No
2018/05/16,10:00,0.310,-,0.315,0.305,0.300,0.159,0.096,south,0.8,No
2018/05/16,10:10,0.310,-,0.320,0.305,0.298,0.159,0.096,-,CALM,No
2018/05/16,10:20,0.309,-,0.320,0.305,0.300,0.159,0.096,west-southwest,0.6,No
2018/05/16,10:30,0.308,-,0.319,0.306,0.300,0.159,0.097,northwest,1.0,No
2018/05/16,10:40,0.309,-,0.318,0.305,0.300,0.159,0.097,north,2.1,No
2018/05/16,10:50,0.307,-,0.317,0.306,0.300,0.159,0.097,north-northwest,1.5,No
2018/05/16,11:00,0.309,-,0.317,0.305,0.300,0.160,0.096,north-northeast,3.4,No
2018/05/16,11:10,0.313,-,0.319,0.306,0.300,0.160,0.097,northeast,4.2,No
2018/05/16,11:20,0.315,-,0.318,0.305,0.300,0.159,0.097,east,4.1,No
2018/05/16,11:30,0.313,-,0.317,0.305,0.300,0.159,0.096,east,2.4,No
2018/05/16,11:40,0.313,-,0.319,0.305,0.299,0.159,0.096,east-southeast,1.4,No
2018/05/16,11:50,0.311,-,0.320,0.304,0.299,0.159,0.096,southeast,0.8,No
2018/05/16,12:00,0.311,-,0.319,0.305,0.298,0.160,0.097,east-southeast,1.0,No
2018/05/16,12:10,0.311,-,0.318,0.304,0.298,0.159,0.097,south-southeast,3.9,No
2018/05/16,12:20,0.311,-,0.317,0.305,0.299,0.160,0.097,south,5.2,No
2018/05/16,12:30,0.311,-,0.318,0.306,0.299,0.159,0.095,south,5.5,No
2018/05/16,12:40,0.310,-,0.318,0.306,0.300,0.158,0.096,south,5.5,No
2018/05/16,12:50,0.309,-,0.319,0.306,0.299,0.159,0.096,south,7.9,No
2018/05/16,13:00,0.310,-,0.319,0.305,0.301,0.159,0.096,south,8.5,No
2018/05/16,13:10,0.310,-,0.319,0.306,0.300,0.159,0.097,south,8.4,No
2018/05/16,13:20,0.310,-,0.319,0.305,0.301,0.160,0.096,south,8.7,No
2018/05/16,13:30,0.310,-,0.318,0.306,0.299,0.158,0.097,south,9.2,No
2018/05/16,13:40,0.310,-,0.319,0.307,0.299,0.160,0.097,south,9.8,No
2018/05/16,13:50,0.311,-,0.319,0.306,0.300,0.160,0.097,south,9.2,No
2018/05/16,14:00,0.310,-,0.319,0.306,0.300,0.159,0.097,south,8.5,No
2018/05/16,14:10,0.310,-,0.318,0.305,0.299,0.158,0.097,south,9.8,No
2018/05/16,14:20,0.312,-,0.320,0.306,0.298,0.161,0.097,south,10.3,No
2018/05/16,14:30,0.312,-,0.319,0.305,0.300,0.159,0.097,south,10.0,No
2018/05/16,14:40,0.313,-,0.319,0.305,0.300,0.160,0.096,south,10.0,No
2018/05/16,14:50,0.313,-,0.319,0.304,0.300,0.161,0.097,south,9.0,No
2018/05/16,15:00,0.313,-,0.319,0.306,0.300,0.160,0.097,south,9.0,No
2018/05/16,15:10,0.312,-,0.320,0.306,0.300,0.160,0.097,south,10.1,No
2018/05/16,15:20,0.312,-,0.318,0.303,0.299,0.160,0.097,south,11.1,No
2018/05/16,15:30,0.311,-,0.319,0.305,0.300,0.159,0.096,south,11.2,No
2018/05/16,15:40,0.310,0.194,0.319,0.304,0.300,0.159,0.096,south,8.8,No
2018/05/16,15:50,0.311,0.195,0.316,0.304,0.300,0.159,0.098,south,9.8,No
2018/05/16,16:00,0.312,0.195,0.316,0.304,0.301,0.159,0.097,south,9.5,No
2018/05/16,16:10,0.311,0.196,0.318,0.309,0.300,0.158,0.097,south-southwest,9.5,No
2018/05/16,16:20,0.311,0.195,0.318,0.308,0.299,0.158,0.096,south-southwest,10.6,No
2018/05/16,16:30,0.311,0.196,0.317,0.306,0.299,0.159,0.096,south-southwest,8.6,No
2018/05/16,16:40,0.311,0.197,0.319,0.305,0.298,0.158,0.097,south-southwest,8.6,No
2018/05/16,16:50,0.311,0.197,0.324,0.305,0.300,0.159,0.097,south-southwest,9.5,No
2018/05/16,17:00,0.311,0.196,0.322,0.309,0.298,0.159,0.096,south-southwest,8.2,No
2018/05/16,17:10,0.310,0.195,0.320,0.309,0.297,0.159,0.097,south-southwest,8.4,No
2018/05/16,17:20,0.313,0.196,0.320,0.307,0.297,0.160,0.098,south-southwest,8.7,No
2018/05/16,17:30,0.316,0.198,0.317,0.305,0.298,0.160,0.097,south-southwest,8.7,No
2018/05/16,17:40,0.313,0.197,0.320,0.305,0.301,0.159,0.097,south-southwest,9.0,No
2018/05/16,17:50,0.310,0.196,0.322,0.308,0.302,0.158,0.097,south-southwest,7.8,No
2018/05/16,18:00,0.315,0.196,0.319,0.308,0.300,0.161,0.097,south-southwest,7.3,No
2018/05/16,18:10,0.314,0.198,0.318,0.306,0.298,0.160,0.096,south-southwest,6.7,No
2018/05/16,18:20,0.312,0.197,0.322,0.307,0.301,0.159,0.098,south-southwest,6.1,No
2018/05/16,18:30,0.311,0.197,0.322,0.309,0.302,0.158,0.098,southwest,4.8,No
2018/05/16,18:40,0.315,0.197,0.319,0.306,0.300,0.160,0.098,southwest,5.3,No
2018/05/16,18:50,0.312,0.196,0.320,0.306,0.301,0.160,0.097,southwest,5.0,No
2018/05/16,19:00,0.311,0.197,0.322,0.309,0.303,0.160,0.098,west-southwest,4.8,No
2018/05/16,19:10,0.315,0.197,0.321,0.307,0.300,0.160,0.097,west-southwest,4.6,No
2018/05/16,19:20,0.312,0.197,0.320,0.306,0.299,0.158,0.098,west,3.5,No
2018/05/16,19:30,0.314,0.197,0.324,0.311,0.305,0.161,0.098,west,2.8,No
2018/05/16,19:40,0.314,0.196,0.320,0.308,0.302,0.159,0.098,west-southwest,2.1,No
2018/05/16,19:50,0.313,0.197,0.320,0.307,0.299,0.160,0.099,west-southwest,2.8,No
2018/05/16,20:00,0.315,0.197,0.323,0.309,0.304,0.160,0.099,west-southwest,3.7,No
2018/05/16,20:10,0.313,0.197,0.321,0.307,0.301,0.159,0.098,southwest,2.6,No
2018/05/16,20:20,0.313,0.196,0.321,0.308,0.300,0.161,0.098,west-southwest,3.2,No
2018/05/16,20:30,0.315,0.197,0.321,0.309,0.303,0.161,0.097,west-southwest,3.0,No
2018/05/16,20:40,0.312,0.198,0.319,0.307,0.301,0.160,0.098,south-southwest,2.0,No
2018/05/16,20:50,0.313,0.196,0.324,0.308,0.301,0.161,0.098,south,2.7,No
2018/05/16,21:00,0.313,0.198,0.322,0.308,0.302,0.160,0.097,south-southwest,2.8,No
2018/05/16,21:10,0.311,0.197,0.319,0.306,0.301,0.161,0.098,south,3.2,No
2018/05/16,21:20,0.315,0.198,0.322,0.309,0.302,0.159,0.099,south,3.7,No
2018/05/16,21:30,0.312,0.198,0.320,0.307,0.303,0.161,0.098,south-southwest,3.7,No
2018/05/16,21:40,0.314,0.197,0.323,0.308,0.299,0.161,0.097,south-southwest,4.6,No
2018/05/16,21:50,0.314,0.198,0.321,0.308,0.305,0.160,0.099,south-southwest,4.6,No
2018/05/16,22:00,0.311,0.196,0.321,0.307,0.301,0.161,0.098,south-southwest,4.3,No
2018/05/16,22:10,0.316,0.199,0.323,0.311,0.301,0.159,0.098,south-southwest,3.8,No
2018/05/16,22:20,0.313,0.196,0.320,0.308,0.302,0.160,0.098,south-southwest,2.7,No
2018/05/16,22:30,0.313,0.197,0.323,0.308,0.300,0.160,0.098,south-southwest,3.6,No
2018/05/16,22:40,0.316,0.197,0.322,0.310,0.304,0.160,0.098,south-southwest,3.3,No
2018/05/16,22:50,0.312,0.197,0.321,0.307,0.303,0.161,0.098,south-southwest,4.4,No
2018/05/16,23:00,0.314,0.197,0.324,0.310,0.300,0.160,0.099,south-southwest,4.6,No
2018/05/16,23:10,0.312,0.198,0.322,0.306,0.304,0.160,0.098,south-southwest,3.6,No
2018/05/16,23:20,0.315,0.198,0.322,0.308,0.302,0.160,0.098,south-southwest,3.4,No
2018/05/16,23:30,0.314,0.198,0.324,0.309,0.301,0.161,0.099,south-southwest,3.7,No
2018/05/16,23:40,0.312,0.197,0.321,0.308,0.302,0.160,0.098,southwest,3.7,No
2018/05/16,23:50,0.315,0.196,0.323,0.309,0.300,0.160,0.098,southwest,2.8,No
